Regional Weather Roundup
Issued by NWS Little Rock, AR

Home | Current Version | Previous Version | Text Only | Print | Product List | Glossary On
Versions: 1 2 3 4 5 6 7 8 9 10 11 12 13 14 15 16 17 18 19 20 21 22 23 24 25 26 27 28 29 30 31 32 33 34 35 36 37 38 39 40 41 42 43 44 45 46 47 48 49 50
000
ASUS44 KLZK 230705
RWRLZK

WEATHER ROUNDUP FOR ARKANSAS
NATIONAL WEATHER SERVICE LITTLE ROCK AR
200 AM CDT THU MAR 23 2017

NOTE: "FAIR" INDICATES FEW OR NO CLOUDS BELOW 12,000 FEET WITH NO
SIGNIFICANT WEATHER AND/OR OBSTRUCTIONS TO VISIBILITY.

ARZ001-003-010-029-230800-
NORTHWEST ARKANSAS

CITY           SKY/WX    TMP DP  RH WIND       PRES   REMARKS
FAYETTEVILLE   CLOUDY    53  42  66 SE7       30.17F
FORT SMITH     CLEAR     52  39  61 E9        30.19F
HARRISON       CLEAR     47  33  58 SE13      30.24F
BENTONVILLE    CLOUDY    54  39  58 SE15      30.17S
ROGERS         CLOUDY    52  39  61 SE14      30.17F
SILOAM SPGS    CLOUDY    55  41  58 SE8G16    30.15S
HIGHFILL       CLOUDY    55  42  61 SE14      30.16S
$$

ARZ004-005-016-230800-
NORTH CENTRAL ARKANSAS

CITY           SKY/WX    TMP DP  RH WIND       PRES   REMARKS
BATESVILLE     CLEAR     48  32  53 E5        30.27S
FLIPPIN        MOCLDY    48  28  46 E3        30.24F
MTN HOME       MOCLDY    48  30  49 SE9       30.24F
$$

ARZ040-041-230800-
WEST CENTRAL ARKANSAS

CITY           SKY/WX    TMP DP  RH WIND       PRES   REMARKS
MENA           CLEAR     54  50  87 E6        30.19F
MOUNT IDA      CLEAR     52  43  71 CALM      30.19F
$$

ARZ009-017-025-026-028-230800-
NORTHEAST ARKANSAS

CITY           SKY/WX    TMP DP  RH WIND       PRES   REMARKS
CORNING        CLOUDY    46  34  61 NE9       30.30F
JONESBORO      MOCLDY    48  34  58 NE9       30.28F
NEWPORT        PTCLDY    47  39  74 E9        30.27
WALNUT RIDGE   MOCLDY    46  36  66 NE8       30.28F
BLYTHEVILLE    CLOUDY    49  35  58 E7        30.29R
$$

ARZ022-023-033-042-044-230800-
CENTRAL ARKANSAS

CITY           SKY/WX    TMP DP  RH WIND       PRES   REMARKS
LITTLE ROCK    CLEAR     48  39  71 NE7       30.24S
N LITTLE ROCK    N/A     50  38  64 E8        30.25S
CONWAY           N/A     50  37  62 NE5       30.23S
SEARCY         CLEAR     50  37  61 NE9       30.27F
HOT SPRINGS    CLEAR     52  41  66 E5        30.22F
RUSSELLVILLE   CLEAR     50  36  58 E5        30.24S
CLINTON        CLOUDY    43  41  93 CALM      30.27S
$$

ARZ036-230800-
EAST ARKANSAS

CITY           SKY/WX    TMP DP  RH WIND       PRES   REMARKS
WEST MEMPHIS   PTCLDY    50  31  48 E7        30.25F
$$

ARZ050-053-066-070-073-230800-
SOUTHWEST ARKANSAS

CITY           SKY/WX    TMP DP  RH WIND       PRES   REMARKS
ARKADELPHIA    FAIR      53  44  71 NE6       30.22F
CAMDEN         CLEAR     54  43  66 CALM      30.20F
TEXARKANA      CLEAR     56  50  80 E7        30.18S
EL DORADO      CLEAR     56  48  74 NE6       30.19S
DE QUEEN       MOCLDY    56  48  74 E7        30.16F
$$

ARZ056-057-069-230800-
SOUTHEAST ARKANSAS

CITY           SKY/WX    TMP DP  RH WIND       PRES   REMARKS
PINE BLUFF     CLEAR     51  40  65 NE5       30.22F
STUTTGART      CLEAR     52  34  50 NE8       30.24F
MONTICELLO     CLEAR     54  44  69 NE6       30.20F

$$





USA.gov is the U.S. government's official web portal to all federal, state and local government web resources and services.